STARLINK-31341, 59155

Orbit data source: Space-Track

STARLINK-31341, 59155 is a payload satellite owned by SpaceX/Seattle (US) in LEO that was launched on Mon, 04 Mar 2024 UTC via an FALCON 9 launch vehicle from the Air Force Eastern Test Range (AFETR). Payload-class satellites include a variety of spacecraft equipped with specific instruments for various scientific and technological missions. These include communications satellites like Starlink; space stations such as the ISS; scientific satellites like the Hubble; Earth observation satellites from companies like Planet Labs, Umbra, and HawkEye 360; GPS; miniature CubeSats for education and research; and military/defense satellites.

Loading next visibility...
Identifier
59155, 2024-044D
Orbit
LEO
Country
Flag of USUS
Related business
Manufacturer
SpaceX/Seattle
Mission
Operational Commercial Communications
Bus & Motor
STARLINK V2M, Unknown motor
Mass
730 kg wet, ~700 kg dry
Launch date (UTC)
2024-03-04 (2 years ago)
Launch vehicle
FALCON 9
Launch site
Air Force Eastern Test Range (AFETR)
Object type
Payload
Rocket body
Debris
Shape & HBR
Box + 2 Pan, 14.5 m
Radar Cross Section
33.884 m², Large (>1 m²)

Expand to show TLE details & history
Last TLE update: 9 hours ago

TLE from 9 hours ago
0 STARLINK-31341
1 59155U 24044D   25251.19837908 -.00002577  00000-0 -88564-4 0  9997
2 59155  43.0164  60.4239 0006198 265.6381  94.3762 15.25910640 85629
Epoch: 2025-09-08T04:45Z
TLE epoch observation values (Epoch: 2025-09-08T04:45:39.952Z)
Latitude
-0.00003°
Longitude
1.50046°
Altitude
488.157 km
Speed
7.623 km/s
True Right ascension
04h 01m 41s
True Declination
0° 00' 00"
Sunlit
Object was in daylight at epoch
Visualization orbit readout
Latitude
Unknown
Longitude
Unknown
Altitude
Unknown
Speed
Unknown
Apparent Right ascension
Unknown
Apparent Declination
Unknown
Sunlit
N/A
Visualization observer readout
Local Sidereal Time
06:24:19
Azimuth
Unknown
Elevation
Unknown
Doppler factor
Unknown
Orbital elements
Apogee altitude
494.25 km
Perigee altitude
485.736 km
Semi-major axis
6,868.13 km
Eccentricity
0.00062
Inclination
43.0164°
RAAN
60.4239°
Arg. of periapsis
265.6381°
True anomaly
94.44701°
Mean anomaly
94.3762°
Eccentric anomaly
94.41161°
Mean motion
3.81316 °/min
Orbital period
94.41 mins
BSTAR
-0.000088564
Loading maneuver chart data...
Computing Atmospheric mass density...
Loading historical data...
Loading historical data...
Loading historical data...
Loading historical data...
Loading historical data...
Loading historical data...
Loading historical data...

Documentation

Showing up to 5 results
|